Time,TemperatureF,DewpointF,PressureIn,WindDirection,WindDirectionDegrees,WindSpeedMPH,WindSpeedGustMPH,Humidity,HourlyPrecipIn,Conditions,Clouds,dailyrainin,SolarRadiationWatts/m^2,SoftwareType,DateUTC
2013-02-10 00:01:00,47.0,31.0,-100.00,NE,45,4.0,7.0,54,0.00,,,0.00,0.000000,,2013-02-10 08:01:00,
2013-02-10 00:32:00,45.0,31.0,-100.00,NE,46,3.0,7.0,58,0.00,,,0.00,0.000000,,2013-02-10 08:32:00,
2013-02-10 00:43:00,45.0,31.0,-100.00,NE,46,3.0,7.0,58,0.00,,,0.00,0.000000,,2013-02-10 08:43:00,
2013-02-10 00:52:00,45.0,31.0,-100.00,NE,46,3.0,7.0,58,0.00,,,0.00,0.000000,,2013-02-10 08:52:00,
2013-02-10 01:01:00,45.0,31.0,-100.00,NE,46,3.0,7.0,58,0.00,,,0.00,0.000000,,2013-02-10 09:01:00,
2013-02-10 01:32:00,45.0,31.0,-100.00,ENE,63,4.0,7.0,58,0.00,,,0.00,0.000000,,2013-02-10 09:32:00,
2013-02-10 01:42:00,45.0,31.0,-100.00,ENE,63,4.0,7.0,58,0.00,,,0.00,0.000000,,2013-02-10 09:42:00,
2013-02-10 01:52:00,45.0,31.0,-100.00,ENE,63,4.0,7.0,58,0.00,,,0.00,0.000000,,2013-02-10 09:52:00,
2013-02-10 02:01:00,45.0,31.0,-100.00,ENE,63,4.0,7.0,58,0.00,,,0.00,0.000000,,2013-02-10 10:01:00,
2013-02-10 02:32:00,45.0,32.0,-100.00,NE,48,4.0,7.0,59,0.00,,,0.00,0.000000,,2013-02-10 10:32:00,
2013-02-10 02:42:00,45.0,32.0,-100.00,NE,48,4.0,7.0,59,0.00,,,0.00,0.000000,,2013-02-10 10:42:00,
2013-02-10 02:52:00,45.0,32.0,-100.00,NE,48,4.0,7.0,59,0.00,,,0.00,0.000000,,2013-02-10 10:52:00,
2013-02-10 03:01:00,45.0,32.0,-100.00,NE,48,4.0,7.0,59,0.00,,,0.00,0.000000,,2013-02-10 11:01:00,
2013-02-10 03:32:00,45.0,32.0,-100.00,ENE,78,5.0,8.0,61,0.00,,,0.00,0.000000,,2013-02-10 11:32:00,
2013-02-10 03:42:00,45.0,32.0,-100.00,ENE,78,5.0,8.0,61,0.00,,,0.00,0.000000,,2013-02-10 11:42:00,
2013-02-10 03:52:00,45.0,32.0,-100.00,ENE,78,5.0,8.0,61,0.00,,,0.00,0.000000,,2013-02-10 11:52:00,
2013-02-10 04:01:00,45.0,32.0,-100.00,ENE,78,5.0,8.0,61,0.00,,,0.00,0.000000,,2013-02-10 12:01:00,
2013-02-10 07:32:00,44.0,26.0,-100.00,NE,55,4.0,7.0,49,-99.99,,,0.00,3.000000,,2013-02-10 15:32:00,
2013-02-10 07:42:00,44.0,26.0,-100.00,NE,55,4.0,7.0,49,-99.99,,,0.00,3.000000,,2013-02-10 15:42:00,
2013-02-10 07:52:00,44.0,26.0,-100.00,NE,55,4.0,7.0,49,-99.99,,,0.00,3.000000,,2013-02-10 15:52:00,
2013-02-10 08:01:00,44.0,26.0,-100.00,NE,55,4.0,7.0,49,-99.99,,,0.00,3.000000,,2013-02-10 16:01:00,
2013-02-10 08:32:00,47.0,29.0,-100.00,ENE,59,3.0,6.0,50,0.00,,,0.00,23.000000,,2013-02-10 16:32:00,
2013-02-10 08:42:00,47.0,29.0,-100.00,ENE,59,3.0,6.0,50,0.00,,,0.00,23.000000,,2013-02-10 16:42:00,
2013-02-10 08:52:00,47.0,29.0,-100.00,ENE,59,3.0,6.0,50,0.00,,,0.00,23.000000,,2013-02-10 16:52:00,
2013-02-10 09:01:00,47.0,29.0,-100.00,ENE,59,3.0,6.0,50,0.00,,,0.00,23.000000,,2013-02-10 17:01:00,
2013-02-10 09:32:00,51.0,36.0,-100.00,SW,218,3.0,5.0,57,0.00,,,0.00,38.000000,,2013-02-10 17:32:00,
2013-02-10 09:42:00,51.0,36.0,-100.00,SW,218,3.0,5.0,57,0.00,,,0.00,38.000000,,2013-02-10 17:42:00,
2013-02-10 09:52:00,51.0,36.0,-100.00,SW,218,3.0,5.0,57,0.00,,,0.00,38.000000,,2013-02-10 17:52:00,
2013-02-10 10:01:00,51.0,36.0,-100.00,SW,218,3.0,5.0,57,0.00,,,0.00,38.000000,,2013-02-10 18:01:00,
2013-02-10 10:32:00,55.0,40.0,-100.00,SSW,208,4.0,8.0,57,0.00,,,0.00,461.000000,,2013-02-10 18:32:00,
2013-02-10 10:42:00,55.0,40.0,-100.00,SSW,208,4.0,8.0,57,0.00,,,0.00,461.000000,,2013-02-10 18:42:00,
2013-02-10 10:52:00,55.0,40.0,-100.00,SSW,208,4.0,8.0,57,0.00,,,0.00,461.000000,,2013-02-10 18:52:00,
2013-02-10 11:01:00,55.0,40.0,-100.00,SSW,208,4.0,8.0,57,0.00,,,0.00,461.000000,,2013-02-10 19:01:00,
2013-02-10 11:32:00,51.0,40.0,-100.00,SW,228,4.0,9.0,65,0.00,,,0.00,333.000000,,2013-02-10 19:32:00,
2013-02-10 11:43:00,51.0,40.0,-100.00,SW,228,4.0,9.0,65,0.00,,,0.00,333.000000,,2013-02-10 19:43:00,
2013-02-10 11:52:00,51.0,40.0,-100.00,SW,228,4.0,9.0,65,0.00,,,0.00,333.000000,,2013-02-10 19:52:00,
2013-02-10 12:01:00,51.0,40.0,-100.00,SW,228,4.0,9.0,65,0.00,,,0.00,333.000000,,2013-02-10 20:01:00,
2013-02-10 12:32:00,54.0,41.0,-100.00,SSE,162,3.0,7.0,62,0.00,,,0.00,276.000000,,2013-02-10 20:32:00,
2013-02-10 12:42:00,54.0,41.0,-100.00,SSE,162,3.0,7.0,62,0.00,,,0.00,276.000000,,2013-02-10 20:42:00,
2013-02-10 12:52:00,54.0,41.0,-100.00,SSE,162,3.0,7.0,62,0.00,,,0.00,276.000000,,2013-02-10 20:52:00,
2013-02-10 13:02:00,54.0,41.0,-100.00,SSE,162,3.0,7.0,62,0.00,,,0.00,276.000000,,2013-02-10 21:02:00,
2013-02-10 13:32:00,54.0,44.0,-100.00,SW,214,2.0,8.0,68,0.00,,,0.00,406.000000,,2013-02-10 21:32:00,
2013-02-10 13:42:00,54.0,44.0,-100.00,SW,214,2.0,8.0,68,0.00,,,0.00,406.000000,,2013-02-10 21:42:00,
2013-02-10 13:52:00,54.0,44.0,-100.00,SW,214,2.0,8.0,68,0.00,,,0.00,406.000000,,2013-02-10 21:52:00,
2013-02-10 14:01:00,54.0,44.0,-100.00,SW,214,2.0,8.0,68,0.00,,,0.00,406.000000,,2013-02-10 22:01:00,
2013-02-10 14:32:00,51.0,43.0,-100.00,SSW,193,3.0,6.0,73,0.00,,,0.00,185.000000,,2013-02-10 22:32:00,
2013-02-10 14:42:00,51.0,43.0,-100.00,SSW,193,3.0,6.0,73,0.00,,,0.00,185.000000,,2013-02-10 22:42:00,
2013-02-10 14:52:00,51.0,43.0,-100.00,SSW,193,3.0,6.0,73,0.00,,,0.00,185.000000,,2013-02-10 22:52:00,
2013-02-10 15:01:00,51.0,43.0,-100.00,SSW,193,3.0,6.0,73,0.00,,,0.00,185.000000,,2013-02-10 23:01:00,
2013-02-10 15:32:00,51.0,42.0,-100.00,SSE,168,2.0,5.0,71,0.00,,,0.00,63.000000,,2013-02-10 23:32:00,
2013-02-10 15:42:00,51.0,42.0,-100.00,SSE,168,2.0,5.0,71,0.00,,,0.00,63.000000,,2013-02-10 23:42:00,
2013-02-10 15:52:00,51.0,42.0,-100.00,SSE,168,2.0,5.0,71,0.00,,,0.00,63.000000,,2013-02-10 23:52:00,
2013-02-10 16:01:00,51.0,42.0,-100.00,SSE,168,2.0,5.0,71,0.00,,,0.00,63.000000,,2013-02-11 00:01:00,
2013-02-10 16:32:00,51.0,42.0,-100.00,SSE,165,1.0,3.0,71,0.00,,,0.00,48.000000,,2013-02-11 00:32:00,
2013-02-10 16:42:00,51.0,42.0,-100.00,SSE,165,1.0,3.0,71,0.00,,,0.00,48.000000,,2013-02-11 00:42:00,
2013-02-10 16:52:00,51.0,42.0,-100.00,SSE,165,1.0,3.0,71,0.00,,,0.00,48.000000,,2013-02-11 00:52:00,
2013-02-10 17:01:00,51.0,42.0,-100.00,SSE,165,1.0,3.0,71,0.00,,,0.00,48.000000,,2013-02-11 01:01:00,
2013-02-10 18:32:00,50.0,42.0,-100.00,ENE,58,1.0,3.0,75,-99.99,,,0.00,8.000000,,2013-02-11 02:32:00,
2013-02-10 18:42:00,50.0,42.0,-100.00,ENE,58,1.0,3.0,75,-99.99,,,0.00,8.000000,,2013-02-11 02:42:00,
2013-02-10 18:52:00,50.0,42.0,-100.00,ENE,58,1.0,3.0,75,-99.99,,,0.00,8.000000,,2013-02-11 02:52:00,
2013-02-10 19:01:00,50.0,42.0,-100.00,ENE,58,1.0,3.0,75,-99.99,,,0.00,8.000000,,2013-02-11 03:01:00,
2013-02-10 19:32:00,49.0,42.0,-100.00,NE,56,1.0,3.0,78,0.00,,,0.00,0.000000,,2013-02-11 03:32:00,
2013-02-10 19:42:00,49.0,42.0,-100.00,NE,56,1.0,3.0,78,0.00,,,0.00,0.000000,,2013-02-11 03:42:00,
2013-02-10 19:52:00,49.0,42.0,-100.00,NE,56,1.0,3.0,78,0.00,,,0.00,0.000000,,2013-02-11 03:52:00,
2013-02-10 20:01:00,49.0,42.0,-100.00,NE,56,1.0,3.0,78,0.00,,,0.00,0.000000,,2013-02-11 04:01:00,
2013-02-10 20:32:00,47.0,40.0,-100.00,NE,52,3.0,5.0,77,0.00,,,0.00,0.000000,,2013-02-11 04:32:00,
2013-02-10 20:42:00,47.0,40.0,-100.00,NE,52,3.0,5.0,77,0.00,,,0.00,0.000000,,2013-02-11 04:42:00,
2013-02-10 20:52:00,47.0,40.0,-100.00,NE,52,3.0,5.0,77,0.00,,,0.00,0.000000,,2013-02-11 04:52:00,
2013-02-10 21:01:00,47.0,40.0,-100.00,NE,52,3.0,5.0,77,0.00,,,0.00,0.000000,,2013-02-11 05:01:00,
2013-02-10 21:32:00,46.0,39.0,-100.00,ENE,59,3.0,6.0,75,0.00,,,0.00,0.000000,,2013-02-11 05:32:00,
2013-02-10 21:42:00,46.0,39.0,-100.00,ENE,59,3.0,6.0,75,0.00,,,0.00,0.000000,,2013-02-11 05:42:00,
2013-02-10 21:52:00,46.0,39.0,-100.00,ENE,59,3.0,6.0,75,0.00,,,0.00,0.000000,,2013-02-11 05:52:00,
2013-02-10 22:01:00,46.0,39.0,-100.00,ENE,59,3.0,6.0,75,0.00,,,0.00,0.000000,,2013-02-11 06:01:00,
2013-02-10 22:32:00,44.0,39.0,-100.00,NE,53,3.0,5.0,81,0.00,,,0.00,0.000000,,2013-02-11 06:32:00,
2013-02-10 22:42:00,44.0,39.0,-100.00,NE,53,3.0,5.0,81,0.00,,,0.00,0.000000,,2013-02-11 06:42:00,
2013-02-10 22:52:00,44.0,39.0,-100.00,NE,53,3.0,5.0,81,0.00,,,0.00,0.000000,,2013-02-11 06:52:00,
2013-02-10 23:01:00,44.0,39.0,-100.00,NE,53,3.0,5.0,81,0.00,,,0.00,0.000000,,2013-02-11 07:01:00,
2013-02-10 23:32:00,44.0,37.0,-100.00,NE,45,2.0,5.0,77,0.00,,,0.00,0.000000,,2013-02-11 07:32:00,
2013-02-10 23:42:00,44.0,37.0,-100.00,NE,45,2.0,5.0,77,0.00,,,0.00,0.000000,,2013-02-11 07:42:00,
2013-02-10 23:52:00,44.0,37.0,-100.00,NE,45,2.0,5.0,77,0.00,,,0.00,0.000000,,2013-02-11 07:52:00,